Location: Monroe
(41.9160°N, 83.3980°W)
Time: 13:16:40
(UTC-05:00)

ISS - Visible Passes

Search period start: 04 December 2016 00:00
Search period end: 14 December 2016 00:00
Orbit: 401 x 410 km, 51.6° (Epoch: 04 December)

Date Brightness Start Highest point End Pass type
(mag) Time Alt. Az. Time Alt. Az. Time Alt. Az.
04 Dec -2.2 18:27:39 10° W 18:30:45 37° NNW 18:32:01 26° NNE visible
05 Dec -3.0 17:35:28 10° WSW 17:38:43 61° NNW 17:42:01 10° NE visible
05 Dec -0.8 19:13:20 10° WNW 19:14:51 17° NW 19:14:51 17° NW visible
06 Dec -1.5 18:20:50 10° WNW 18:23:32 23° NNW 18:24:57 17° NNE visible
07 Dec -2.0 17:28:24 10° W 17:31:23 31° NNW 17:34:24 10° NE visible
07 Dec -0.7 19:06:34 10° NW 19:07:43 14° NNW 19:07:43 14° NNW visible
08 Dec -1.2 18:14:06 10° NW 18:16:23 17° N 18:17:46 14° NNE visible
09 Dec -0.8 18:59:28 10° NW 19:00:30 14° NNW 19:00:30 14° NNW visible
10 Dec -1.1 18:07:11 10° NW 18:09:14 15° N 18:10:33 13° NNE visible
11 Dec -1.0 18:51:58 10° NNW 18:53:18 16° NNW 18:53:18 16° NNW visible
12 Dec -1.3 17:59:55 10° NW 18:02:02 16° N 18:03:25 13° NE visible
13 Dec -1.6 18:44:14 10° NW 18:46:16 23° N 18:46:16 23° N visible
